| time (UTC) | temp F | wind direction | speed MPH | gust MPH | rain 1hr in | rain 24hr in | rain mn in | humidity % | barometer mb |
| 20260831145547 | 80 | 194 | 5.0 | 10.0 | 0.00 | 0.00 | 0.00 | 80 | 1013.5 |
| 20260831145047 | 79 | 140 | 5.0 | 12.0 | 0.00 | 0.00 | 0.00 | 82 | 1013.4 |
| 20260831144547 | 79 | 169 | 8.0 | 12.0 | 0.00 | 0.00 | 0.00 | 82 | 1013.4 |
| 20260831144046 | 79 | 155 | 7.0 | 11.0 | 0.00 | 0.00 | 0.00 | 83 | 1013.4 |
| 20260831143546 | 79 | 153 | 6.0 | 10.0 | 0.00 | 0.00 | 0.00 | 84 | 1013.5 |
| 20260831143046 | 78 | 170 | 7.0 | 11.0 | 0.00 | 0.00 | 0.00 | 84 | 1013.5 |
| 20260831142546 | 78 | 155 | 7.0 | 11.0 | 0.00 | 0.00 | 0.00 | 84 | 1013.5 |
| 20260831142047 | 78 | 173 | 7.0 | 12.0 | 0.00 | 0.00 | 0.00 | 85 | 1013.4 |
| 20260831141547 | 77 | 180 | 6.0 | 10.0 | 0.00 | 0.00 | 0.00 | 86 | 1013.5 |
| 20260831141044 | 77 | 206 | 5.0 | 10.0 | 0.00 | 0.00 | 0.00 | 87 | 1013.5 |
| 20260831140544 | 77 | 196 | 5.0 | 10.0 | 0.00 | 0.00 | 0.00 | 87 | 1013.5 |
| 20260831140044 | 76 | 188 | 6.0 | 10.0 | 0.00 | 0.00 | 0.00 | 88 | 1013.3 |
| 20260831135544 | 76 | 184 | 5.0 | 11.0 | 0.00 | 0.00 | 0.00 | 88 | 1013.3 |
| 20260831135044 | 76 | 173 | 6.0 | 11.0 | 0.00 | 0.00 | 0.00 | 90 | 1013.3 |
| 20260831134548 | 75 | 165 | 7.0 | 11.0 | 0.00 | 0.00 | 0.00 | 90 | 1013.2 |
| 20260831134042 | 75 | 177 | 5.0 | 8.0 | 0.00 | 0.00 | 0.00 | 91 | 1013.3 |
| 20260831133542 | 74 | 159 | 4.0 | 9.0 | 0.00 | 0.00 | 0.00 | 92 | 1013.2 |
| 20260831133042 | 74 | 167 | 5.0 | 9.0 | 0.00 | 0.00 | 0.00 | 93 | 1013.1 |
| 20260831132541 | 74 | 165 | 5.0 | 9.0 | 0.00 | 0.00 | 0.00 | 94 | 1013.1 |
| 20260831132043 | 73 | 153 | 4.0 | 9.0 | 0.00 | 0.00 | 0.00 | 94 | 1013.2 |
| 20260831131541 | 73 | 182 | 2.0 | 7.0 | 0.00 | 0.00 | 0.00 | 94 | 1013.2 |
| 20260831131041 | 73 | 175 | 3.0 | 8.0 | 0.00 | 0.00 | 0.00 | 95 | 1013.2 |
| 20260831130540 | 73 | 171 | 4.0 | 7.0 | 0.00 | 0.00 | 0.00 | 95 | 1013.1 |
| 20260831130042 | 72 | 190 | 3.0 | 10.0 | 0.00 | 0.00 | 0.00 | 95 | 1013.1 |
| 20260831125541 | 72 | 185 | 4.0 | 7.0 | 0.00 | 0.00 | 0.00 | 95 | 1013.0 |
| 20260831125040 | 72 | 175 | 1.0 | 6.0 | 0.00 | 0.00 | 0.00 | 95 | 1013.0 |
| 20260831124540 | 72 | 190 | 2.0 | 5.0 | 0.00 | 0.00 | 0.00 | 94 | 1013.0 |
| 20260831124040 | 72 | 192 | 2.0 | 7.0 | 0.00 | 0.00 | 0.00 | 94 | 1013.0 |
| 20260831123539 | 72 | 171 | 4.0 | 7.0 | 0.00 | 0.00 | 0.00 | 94 | 1012.9 |
| 20260831123039 | 72 | 185 | 3.0 | 7.0 | 0.00 | 0.00 | 0.00 | 94 | 1012.9 |
| 20260831122539 | 72 | 151 | 4.0 | 9.0 | 0.00 | 0.00 | 0.00 | 94 | 1013.0 |
| 20260831122038 | 72 | 171 | 5.0 | 10.0 | 0.00 | 0.00 | 0.00 | 94 | 1012.9 |
| 20260831121538 | 72 | 196 | 6.0 | 10.0 | 0.00 | 0.00 | 0.00 | 94 | 1012.8 |
| 20260831121038 | 72 | 164 | 5.0 | 10.0 | 0.00 | 0.00 | 0.00 | 94 | 1012.8 |
| 20260831120538 | 73 | 200 | 4.0 | 9.0 | 0.00 | 0.00 | 0.00 | 94 | 1012.8 |
| 20260831120038 | 73 | 184 | 3.0 | 9.0 | 0.00 | 0.00 | 0.00 | 94 | 1012.8 |
| 20260831115536 | 73 | 198 | 3.0 | 8.0 | 0.00 | 0.00 | 0.00 | 94 | 1012.8 |
| 20260831115036 | 73 | 194 | 4.0 | 8.0 | 0.00 | 0.00 | 0.00 | 94 | 1012.8 |
| 20260831114536 | 73 | 164 | 5.0 | 9.0 | 0.00 | 0.00 | 0.00 | 94 | 1012.8 |
| 20260831114036 | 73 | 173 | 4.0 | 9.0 | 0.00 | 0.00 | 0.00 | 94 | 1012.7 |
| 20260831113537 | 73 | 172 | 5.0 | 8.0 | 0.00 | 0.00 | 0.00 | 94 | 1012.7 |
| 20260831113042 | 73 | 173 | 5.0 | 9.0 | 0.00 | 0.00 | 0.00 | 93 | 1012.6 |
| 20260831112535 | 73 | 175 | 5.0 | 10.0 | 0.00 | 0.00 | 0.00 | 93 | 1012.6 |
| 20260831112033 | 73 | 165 | 4.0 | 9.0 | 0.00 | 0.00 | 0.00 | 93 | 1012.6 |
| 20260831111533 | 73 | 147 | 6.0 | 9.0 | 0.00 | 0.00 | 0.00 | 93 | 1012.6 |
| 20260831111033 | 73 | 170 | 4.0 | 14.0 | 0.00 | 0.00 | 0.00 | 93 | 1012.5 |
| 20260831110537 | 73 | 180 | 5.0 | 15.0 | 0.00 | 0.00 | 0.00 | 93 | 1012.6 |
| 20260831110032 | 73 | 161 | 8.0 | 13.0 | 0.00 | 0.00 | 0.00 | 93 | 1012.6 |
| 20260831105534 | 73 | 186 | 4.0 | 10.0 | 0.00 | 0.00 | 0.00 | 92 | 1012.6 |
| 20260831105032 | 73 | 167 | 7.0 | 11.0 | 0.00 | 0.00 | 0.00 | 92 | 1012.6 |
| 20260831104536 | 73 | 175 | 6.0 | 11.0 | 0.00 | 0.00 | 0.00 | 92 | 1012.6 |
| 20260831104032 | 73 | 178 | 5.0 | 12.0 | 0.00 | 0.00 | 0.00 | 93 | 1012.6 |
| 20260831103532 | 73 | 186 | 7.0 | 14.0 | 0.00 | 0.00 | 0.00 | 93 | 1012.6 |
| 20260831103031 | 73 | 183 | 6.0 | 14.0 | 0.00 | 0.00 | 0.00 | 93 | 1012.6 |
| 20260831102531 | 73 | 200 | 5.0 | 13.0 | 0.00 | 0.00 | 0.00 | 93 | 1012.6 |
| 20260831102030 | 73 | 186 | 7.0 | 13.0 | 0.00 | 0.00 | 0.00 | 93 | 1012.6 |
| 20260831101530 | 73 | 165 | 6.0 | 11.0 | 0.00 | 0.00 | 0.00 | 93 | 1012.6 |
| 20260831101030 | 73 | 184 | 5.0 | 14.0 | 0.00 | 0.00 | 0.00 | 93 | 1012.6 |
| 20260831100529 | 73 | 150 | 7.0 | 14.0 | 0.00 | 0.00 | 0.00 | 93 | 1012.7 |
| 20260831100035 | 73 | 178 | 5.0 | 12.0 | 0.00 | 0.00 | 0.00 | 93 | 1012.7 |
| 20260831095529 | 73 | 187 | 8.0 | 12.0 | 0.00 | 0.00 | 0.00 | 93 | 1012.7 |
| 20260831095029 | 73 | 186 | 5.0 | 12.0 | 0.00 | 0.00 | 0.00 | 93 | 1012.7 |
| 20260831094529 | 73 | 165 | 4.0 | 10.0 | 0.00 | 0.00 | 0.00 | 93 | 1012.6 |
| 20260831094030 | 73 | 156 | 6.0 | 12.0 | 0.00 | 0.00 | 0.00 | 93 | 1012.5 |
| 20260831093528 | 73 | 180 | 8.0 | 13.0 | 0.00 | 0.00 | 0.00 | 93 | 1012.5 |
| 20260831093031 | 73 | 169 | 8.0 | 13.0 | 0.00 | 0.00 | 0.00 | 92 | 1012.5 |
| 20260831092532 | 73 | 157 | 5.0 | 15.0 | 0.00 | 0.00 | 0.00 | 92 | 1012.5 |
| 20260831092026 | 73 | 186 | 7.0 | 15.0 | 0.00 | 0.00 | 0.00 | 92 | 1012.6 |
| 20260831091532 | 73 | 159 | 7.0 | 16.0 | 0.00 | 0.00 | 0.00 | 92 | 1012.5 |
| 20260831091026 | 73 | 184 | 7.0 | 15.0 | 0.00 | 0.00 | 0.00 | 92 | 1012.4 |
| 20260831090529 | 73 | 188 | 9.0 | 15.0 | 0.00 | 0.00 | 0.00 | 92 | 1012.5 |
| 20260831090026 | 73 | 175 | 6.0 | 15.0 | 0.00 | 0.00 | 0.00 | 91 | 1012.5 |
| 20260831085526 | 73 | 132 | 9.0 | 14.0 | 0.00 | 0.00 | 0.00 | 91 | 1012.6 |
| 20260831085026 | 73 | 204 | 7.0 | 14.0 | 0.00 | 0.00 | 0.00 | 91 | 1012.6 |
| 20260831084528 | 74 | 155 | 7.0 | 14.0 | 0.00 | 0.00 | 0.00 | 91 | 1012.6 |
| 20260831084023 | 74 | 166 | 8.0 | 12.0 | 0.00 | 0.00 | 0.00 | 90 | 1012.6 |
| 20260831083523 | 74 | 145 | 8.0 | 15.0 | 0.00 | 0.00 | 0.00 | 90 | 1012.7 |
| 20260831083022 | 74 | 169 | 8.0 | 14.0 | 0.00 | 0.00 | 0.00 | 90 | 1012.7 |
| 20260831082521 | 74 | 168 | 6.0 | 14.0 | 0.00 | 0.00 | 0.00 | 89 | 1012.8 |
| 20260831082020 | 74 | 176 | 5.0 | 10.0 | 0.00 | 0.00 | 0.00 | 88 | 1012.9 |
| 20260831081522 | 74 | 175 | 5.0 | 11.0 | 0.00 | 0.00 | 0.00 | 88 | 1012.9 |
| 20260831081020 | 74 | 189 | 6.0 | 11.0 | 0.00 | 0.00 | 0.00 | 87 | 1013.0 |
| 20260831080518 | 74 | 143 | 4.0 | 12.0 | 0.00 | 0.00 | 0.00 | 87 | 1013.0 |
| 20260831080019 | 74 | 175 | 5.0 | 13.0 | 0.00 | 0.00 | 0.00 | 87 | 1013.1 |
| 20260831075520 | 74 | 151 | 8.0 | 13.0 | 0.00 | 0.00 | 0.00 | 86 | 1013.2 |
| 20260831075017 | 74 | 163 | 5.0 | 11.0 | 0.00 | 0.00 | 0.00 | 86 | 1013.1 |
| 20260831074521 | 74 | 173 | 5.0 | 12.0 | 0.00 | 0.00 | 0.00 | 86 | 1013.1 |
| 20260831074016 | 75 | 159 | 6.0 | 13.0 | 0.00 | 0.00 | 0.00 | 85 | 1013.2 |
| 20260831073518 | 75 | 161 | 8.0 | 13.0 | 0.00 | 0.00 | 0.00 | 85 | 1013.2 |
| 20260831073014 | 75 | 183 | 8.0 | 13.0 | 0.00 | 0.00 | 0.00 | 84 | 1013.2 |
| 20260831072514 | 75 | 148 | 5.0 | 10.0 | 0.00 | 0.00 | 0.00 | 84 | 1013.2 |
| 20260831072012 | 75 | 163 | 5.0 | 10.0 | 0.00 | 0.00 | 0.00 | 83 | 1013.2 |
| 20260831071511 | 75 | 136 | 6.0 | 10.0 | 0.00 | 0.00 | 0.00 | 83 | 1013.1 |
| 20260831071011 | 75 | 153 | 5.0 | 13.0 | 0.00 | 0.00 | 0.00 | 82 | 1013.0 |
| 20260831070511 | 75 | 200 | 7.0 | 13.0 | 0.00 | 0.00 | 0.00 | 82 | 1013.0 |
| 20260831070010 | 75 | 151 | 6.0 | 12.0 | 0.00 | 0.00 | 0.00 | 82 | 1013.1 |
| 20260831065512 | 76 | 140 | 5.0 | 12.0 | 0.00 | 0.00 | 0.00 | 81 | 1013.0 |
| 20260831065008 | 76 | 162 | 6.0 | 10.0 | 0.00 | 0.00 | 0.00 | 80 | 1013.0 |
| 20260831064507 | 76 | 148 | 5.0 | 10.0 | 0.00 | 0.00 | 0.00 | 80 | 1013.1 |
| 20260831064007 | 76 | 146 | 6.0 | 10.0 | 0.00 | 0.00 | 0.00 | 80 | 1013.1 |
| 20260831063505 | 76 | 138 | 5.0 | 12.0 | 0.00 | 0.00 | 0.00 | 79 | 1013.0 |
| 20260831063005 | 76 | 193 | 4.0 | 12.0 | 0.00 | 0.00 | 0.00 | 80 | 1013.0 |
| 20260831062505 | 76 | 182 | 5.0 | 11.0 | 0.00 | 0.00 | 0.00 | 79 | 1012.9 |
| 20260831062002 | 77 | 134 | 5.0 | 11.0 | 0.00 | 0.00 | 0.00 | 79 | 1012.9 |
| 20260831061501 | 77 | 128 | 5.0 | 10.0 | 0.00 | 0.00 | 0.00 | 78 | 1012.9 |
| 20260831061101 | 77 | 161 | 5.0 | 8.0 | 0.00 | 0.00 | 0.00 | 78 | 1012.9 |
| 20260831060600 | 77 | 182 | 5.0 | 9.0 | 0.00 | 0.00 | 0.00 | 77 | 1012.8 |
| 20260831060109 | 77 | 149 | 4.0 | 11.0 | 0.00 | 0.00 | 0.00 | 77 | 1012.8 |
| 20260831055557 | 77 | 177 | 4.0 | 11.0 | 0.00 | 0.00 | 0.00 | 77 | 1012.8 |
| 20260831055059 | 78 | 176 | 5.0 | 10.0 | 0.00 | 0.00 | 0.00 | 77 | 1012.8 |
| 20260831054556 | 78 | 177 | 6.0 | 10.0 | 0.00 | 0.00 | 0.00 | 77 | 1012.8 |
| 20260831054056 | 78 | 178 | 6.0 | 10.0 | 0.00 | 0.00 | 0.00 | 76 | 1012.8 |
| 20260831053555 | 78 | 169 | 6.0 | 17.0 | 0.00 | 0.00 | 0.00 | 76 | 1012.7 |
| 20260831053155 | 78 | 161 | 6.0 | 17.0 | 0.00 | 0.00 | 0.00 | 76 | 1012.7 |
| 20260831052552 | 79 | 167 | 7.0 | 18.0 | 0.00 | 0.00 | 0.00 | 76 | 1012.7 |
| 20260831052053 | 79 | 152 | 8.0 | 18.0 | 0.00 | 0.00 | 0.00 | 75 | 1012.7 |
| 20260831051557 | 79 | 160 | 9.0 | 16.0 | 0.00 | 0.00 | 0.00 | 75 | 1012.5 |
| 20260831051050 | 79 | 167 | 9.0 | 16.0 | 0.00 | 0.00 | 0.00 | 75 | 1012.5 |
| 20260831050549 | 79 | 166 | 6.0 | 16.0 | 0.00 | 0.00 | 0.00 | 74 | 1012.4 |
| 20260831050047 | 79 | 167 | 7.0 | 15.0 | 0.00 | 0.00 | 0.00 | 73 | 1012.4 |
| 20260831045547 | 80 | 175 | 7.0 | 16.0 | 0.00 | 0.00 | 0.00 | 73 | 1012.4 |
| 20260831045047 | 80 | 141 | 10.0 | 16.0 | 0.00 | 0.00 | 0.00 | 73 | 1012.4 |
| 20260831044547 | 80 | 179 | 9.0 | 20.0 | 0.00 | 0.00 | 0.00 | 72 | 1012.3 |
| 20260831044047 | 80 | 171 | 12.0 | 21.0 | 0.00 | 0.00 | 0.00 | 72 | 1012.3 |
| 20260831043546 | 80 | 172 | 9.0 | 21.0 | 0.00 | 0.00 | 0.00 | 72 | 1012.3 |
| 20260831043046 | 80 | 140 | 8.0 | 15.0 | 0.00 | 0.00 | 0.00 | 71 | 1012.3 |
| 20260831042546 | 80 | 153 | 8.0 | 16.0 | 0.00 | 0.00 | 0.00 | 71 | 1012.3 |
| 20260831042045 | 81 | 146 | 8.0 | 16.0 | 0.00 | 0.00 | 0.00 | 70 | 1012.3 |
| 20260831041545 | 81 | 159 | 9.0 | 17.0 | 0.00 | 0.00 | 0.00 | 70 | 1012.2 |
| 20260831041045 | 81 | 138 | 11.0 | 18.0 | 0.00 | 0.00 | 0.00 | 69 | 1012.2 |
| 20260831040545 | 81 | 138 | 9.0 | 17.0 | 0.00 | 0.00 | 0.00 | 69 | 1012.1 |
| 20260831040045 | 81 | 124 | 8.0 | 17.0 | 0.00 | 0.00 | 0.00 | 68 | 1012.1 |
| 20260831035546 | 81 | 140 | 7.0 | 17.0 | 0.00 | 0.00 | 0.00 | 67 | 1012.0 |
| 20260831035044 | 82 | 184 | 8.0 | 16.0 | 0.00 | 0.00 | 0.00 | 66 | 1012.0 |
| 20260831034549 | 82 | 134 | 7.0 | 16.0 | 0.00 | 0.00 | 0.00 | 66 | 1011.9 |
| 20260831034046 | 82 | 132 | 9.0 | 13.0 | 0.00 | 0.00 | 0.00 | 65 | 1011.9 |
| 20260831033544 | 82 | 133 | 7.0 | 12.0 | 0.00 | 0.00 | 0.00 | 65 | 1011.9 |
| 20260831033102 | 82 | 169 | 7.0 | 12.0 | 0.00 | 0.00 | 0.00 | 64 | 1011.9 |
| 20260831032547 | 81 | 151 | 7.0 | 12.0 | 0.00 | 0.00 | 0.00 | 64 | 1011.9 |
| 20260831032043 | 81 | 146 | 8.0 | 12.0 | 0.00 | 0.00 | 0.00 | 64 | 1011.9 |
| 20260831031543 | 81 | 125 | 6.0 | 10.0 | 0.00 | 0.00 | 0.00 | 64 | 1011.8 |
| 20260831031043 | 81 | 132 | 3.0 | 6.0 | 0.00 | 0.00 | 0.00 | 63 | 1011.7 |
| 20260831030543 | 81 | 129 | 3.0 | 5.0 | 0.00 | 0.00 | 0.00 | 63 | 1011.6 |
| 20260831030042 | 81 | 122 | 2.0 | 4.0 | 0.00 | 0.00 | 0.00 | 63 | 1011.5 |
| 20260831025543 | 81 | 111 | 2.0 | 4.0 | 0.00 | 0.00 | 0.00 | 63 | 1011.5 |
| 20260831025143 | 81 | 111 | 2.0 | 4.0 | 0.00 | 0.00 | 0.00 | 62 | 1011.4 |
| 20260831024542 | 81 | 105 | 2.0 | 4.0 | 0.00 | 0.00 | 0.00 | 62 | 1011.4 |
| 20260831024041 | 81 | 113 | 2.0 | 4.0 | 0.00 | 0.00 | 0.00 | 61 | 1011.3 |
| 20260831023541 | 82 | 108 | 2.0 | 4.0 | 0.00 | 0.00 | 0.00 | 61 | 1011.3 |
| 20260831023041 | 82 | 107 | 2.0 | 4.0 | 0.00 | 0.00 | 0.00 | 61 | 1011.2 |
| 20260831022541 | 82 | 128 | 2.0 | 4.0 | 0.00 | 0.00 | 0.00 | 60 | 1011.2 |
| 20260831022041 | 82 | 126 | 3.0 | 4.0 | 0.00 | 0.00 | 0.00 | 60 | 1011.1 |
| 20260831021540 | 82 | 119 | 2.0 | 4.0 | 0.00 | 0.00 | 0.00 | 59 | 1011.0 |
| 20260831021044 | 83 | 119 | 1.0 | 4.0 | 0.00 | 0.00 | 0.00 | 59 | 1011.0 |
| 20260831020541 | 83 | 127 | 3.0 | 4.0 | 0.00 | 0.00 | 0.00 | 58 | 1010.9 |
| 20260831020050 | 83 | 128 | 3.0 | 6.0 | 0.00 | 0.00 | 0.00 | 58 | 1010.9 |
| 20260831015539 | 83 | 128 | 3.0 | 6.0 | 0.00 | 0.00 | 0.00 | 58 | 1010.8 |
| 20260831015041 | 83 | 132 | 3.0 | 6.0 | 0.00 | 0.00 | 0.00 | 57 | 1010.8 |
| 20260831014539 | 84 | 119 | 3.0 | 5.0 | 0.00 | 0.00 | 0.00 | 57 | 1010.7 |
| 20260831014039 | 84 | 133 | 3.0 | 4.0 | 0.00 | 0.00 | 0.00 | 56 | 1010.6 |
| 20260831013539 | 84 | 132 | 3.0 | 5.0 | 0.00 | 0.00 | 0.00 | 56 | 1010.6 |
| 20260831013042 | 84 | 137 | 3.0 | 6.0 | 0.00 | 0.00 | 0.00 | 56 | 1010.5 |
| 20260831012539 | 85 | 144 | 3.0 | 7.0 | 0.00 | 0.00 | 0.00 | 55 | 1010.5 |
| 20260831012039 | 85 | 147 | 3.0 | 7.0 | 0.00 | 0.00 | 0.00 | 55 | 1010.5 |
| 20260831011543 | 85 | 128 | 3.0 | 7.0 | 0.00 | 0.00 | 0.00 | 55 | 1010.6 |
| 20260831011037 | 86 | 125 | 3.0 | 7.0 | 0.00 | 0.00 | 0.00 | 54 | 1010.5 |
| 20260831010538 | 86 | 134 | 3.0 | 7.0 | 0.00 | 0.00 | 0.00 | 54 | 1010.5 |
| 20260831010037 | 86 | 143 | 4.0 | 7.0 | 0.00 | 0.00 | 0.00 | 54 | 1010.4 |
| 20260831005537 | 87 | 138 | 4.0 | 10.0 | 0.00 | 0.00 | 0.00 | 53 | 1010.4 |
| 20260831005037 | 87 | 119 | 4.0 | 10.0 | 0.00 | 0.00 | 0.00 | 53 | 1010.4 |
| 20260831004538 | 87 | 139 | 5.0 | 11.0 | 0.00 | 0.00 | 0.00 | 53 | 1010.4 |
| 20260831004037 | 88 | 126 | 6.0 | 11.0 | 0.00 | 0.00 | 0.00 | 52 | 1010.3 |
| 20260831003537 | 88 | 144 | 3.0 | 12.0 | 0.00 | 0.00 | 0.00 | 52 | 1010.3 |
| 20260831003039 | 88 | 155 | 5.0 | 12.0 | 0.00 | 0.00 | 0.00 | 52 | 1010.2 |
| 20260831002536 | 88 | 134 | 8.0 | 13.0 | 0.00 | 0.00 | 0.00 | 51 | 1010.2 |
| 20260831002035 | 89 | 130 | 7.0 | 13.0 | 0.00 | 0.00 | 0.00 | 51 | 1010.1 |
| 20260831001535 | 89 | 137 | 8.0 | 13.0 | 0.00 | 0.00 | 0.00 | 50 | 1010.1 |
| 20260831001035 | 90 | 138 | 8.0 | 15.0 | 0.00 | 0.00 | 0.00 | 49 | 1010.1 |
| 20260831000536 | 90 | 121 | 8.0 | 13.0 | 0.00 | 0.00 | 0.00 | 49 | 1010.2 |
| 20260831000040 | 90 | 148 | 8.0 | 13.0 | 0.00 | 0.00 | 0.00 | 50 | 1010.1 |
| 20260830235535 | 90 | 130 | 6.0 | 14.0 | 0.00 | 0.00 | 0.00 | 50 | 1010.2 |
| 20260830235034 | 90 | 116 | 5.0 | 14.0 | 0.00 | 0.00 | 0.00 | 50 | 1010.2 |
| 20260830234538 | 90 | 113 | 8.0 | 14.0 | 0.00 | 0.00 | 0.00 | 49 | 1010.2 |
| 20260830234034 | 91 | 131 | 6.0 | 13.0 | 0.00 | 0.00 | 0.00 | 49 | 1010.3 |
| 20260830233536 | 91 | 136 | 5.0 | 12.0 | 0.00 | 0.00 | 0.00 | 50 | 1010.2 |
| 20260830233042 | 90 | 129 | 5.0 | 11.0 | 0.00 | 0.00 | 0.00 | 51 | 1010.2 |
| 20260830232534 | 90 | 94 | 5.0 | 12.0 | 0.00 | 0.00 | 0.00 | 51 | 1010.3 |
| 20260830232034 | 90 | 146 | 4.0 | 14.0 | 0.00 | 0.00 | 0.00 | 51 | 1010.3 |
| 20260830231532 | 91 | 141 | 9.0 | 14.0 | 0.00 | 0.00 | 0.00 | 50 | 1010.2 |
| 20260830231034 | 91 | 134 | 8.0 | 16.0 | 0.00 | 0.00 | 0.00 | 50 | 1010.2 |
| 20260830230532 | 91 | 146 | 11.0 | 17.0 | 0.00 | 0.00 | 0.00 | 49 | 1010.2 |
| 20260830230034 | 92 | 129 | 10.0 | 17.0 | 0.00 | 0.00 | 0.00 | 48 | 1010.1 |
| 20260830225533 | 93 | 142 | 7.0 | 15.0 | 0.00 | 0.00 | 0.00 | 48 | 1010.1 |
| 20260830225032 | 92 | 124 | 6.0 | 13.0 | 0.00 | 0.00 | 0.00 | 48 | 1010.2 |
| 20260830224532 | 92 | 140 | 9.0 | 15.0 | 0.00 | 0.00 | 0.00 | 47 | 1010.2 |
| 20260830224032 | 93 | 127 | 9.0 | 15.0 | 0.00 | 0.00 | 0.00 | 47 | 1010.2 |
| 20260830223532 | 93 | 114 | 7.0 | 16.0 | 0.00 | 0.00 | 0.00 | 46 | 1010.2 |
| 20260830223032 | 93 | 121 | 12.0 | 17.0 | 0.00 | 0.00 | 0.00 | 46 | 1010.2 |
| 20260830222531 | 93 | 123 | 7.0 | 13.0 | 0.00 | 0.00 | 0.00 | 46 | 1010.2 |
| 20260830222030 | 92 | 142 | 5.0 | 12.0 | 0.00 | 0.00 | 0.00 | 47 | 1010.2 |
| 20260830221537 | 92 | 141 | 5.0 | 11.0 | 0.00 | 0.00 | 0.00 | 46 | 1010.2 |
| 20260830221031 | 94 | 122 | 7.0 | 14.0 | 0.00 | 0.00 | 0.00 | 45 | 1010.1 |
| 20260830220531 | 94 | 156 | 8.0 | 14.0 | 0.00 | 0.00 | 0.00 | 45 | 1010.1 |
| 20260830220030 | 94 | 163 | 7.0 | 13.0 | 0.00 | 0.00 | 0.00 | 46 | 1010.2 |
| 20260830215529 | 94 | 148 | 6.0 | 16.0 | 0.00 | 0.00 | 0.00 | 46 | 1010.2 |
| 20260830215030 | 94 | 100 | 7.0 | 16.0 | 0.00 | 0.00 | 0.00 | 46 | 1010.2 |
| 20260830214528 | 94 | 113 | 4.0 | 10.0 | 0.00 | 0.00 | 0.00 | 47 | 1010.2 |
| 20260830214028 | 95 | 170 | 5.0 | 16.0 | 0.00 | 0.00 | 0.00 | 46 | 1010.3 |
| 20260830213528 | 95 | 136 | 7.0 | 16.0 | 0.00 | 0.00 | 0.00 | 47 | 1010.4 |
| 20260830213033 | 95 | 130 | 6.0 | 13.0 | 0.00 | 0.00 | 0.00 | 46 | 1010.4 |
| 20260830212527 | 94 | 142 | 5.0 | 12.0 | 0.00 | 0.00 | 0.00 | 46 | 1010.3 |
| 20260830212026 | 94 | 178 | 8.0 | 16.0 | 0.00 | 0.00 | 0.00 | 46 | 1010.4 |
| 20260830211525 | 95 | 172 | 5.0 | 18.0 | 0.00 | 0.00 | 0.00 | 45 | 1010.6 |
| 20260830211029 | 96 | 147 | 5.0 | 15.0 | 0.00 | 0.00 | 0.00 | 44 | 1010.6 |
| 20260830210524 | 96 | 184 | 7.0 | 14.0 | 0.00 | 0.00 | 0.00 | 46 | 1010.7 |
| 20260830210023 | 96 | 131 | 8.0 | 14.0 | 0.00 | 0.00 | 0.00 | 45 | 1010.7 |
| 20260830205522 | 95 | 246 | 4.0 | 11.0 | 0.00 | 0.00 | 0.00 | 46 | 1010.8 |
| 20260830205020 | 96 | 130 | 6.0 | 12.0 | 0.00 | 0.00 | 0.00 | 46 | 1011.0 |
| 20260830204524 | 96 | 192 | 8.0 | 12.0 | 0.00 | 0.00 | 0.00 | 46 | 1011.1 |
| 20260830204020 | 95 | 188 | 4.0 | 14.0 | 0.00 | 0.00 | 0.00 | 45 | 1011.2 |
| 20260830203518 | 95 | 144 | 8.0 | 14.0 | 0.00 | 0.00 | 0.00 | 46 | 1011.2 |
| 20260830203017 | 94 | 188 | 7.0 | 16.0 | 0.00 | 0.00 | 0.00 | 48 | 1011.2 |
| 20260830202516 | 94 | 185 | 5.0 | 16.0 | 0.00 | 0.00 | 0.00 | 47 | 1011.4 |
| 20260830202014 | 94 | 170 | 9.0 | 16.0 | 0.00 | 0.00 | 0.00 | 48 | 1011.4 |
| 20260830201515 | 94 | 135 | 5.0 | 15.0 | 0.00 | 0.00 | 0.00 | 48 | 1011.5 |
| 20260830201013 | 94 | 155 | 8.0 | 16.0 | 0.00 | 0.00 | 0.00 | 48 | 1011.6 |
| 20260830200515 | 95 | 222 | 9.0 | 16.0 | 0.00 | 0.00 | 0.00 | 47 | 1011.8 |
| 20260830200011 | 94 | 184 | 6.0 | 14.0 | 0.00 | 0.00 | 0.00 | 48 | 1011.9 |
| 20260830195510 | 94 | 181 | 3.0 | 14.0 | 0.00 | 0.00 | 0.00 | 49 | 1011.8 |
| 20260830195009 | 94 | 212 | 9.0 | 15.0 | 0.00 | 0.00 | 0.00 | 48 | 1012.0 |
| 20260830194508 | 93 | 212 | 9.0 | 14.0 | 0.00 | 0.00 | 0.00 | 48 | 1012.0 |
| 20260830194006 | 93 | 180 | 8.0 | 15.0 | 0.00 | 0.00 | 0.00 | 48 | 1012.1 |
| 20260830193504 | 93 | 159 | 8.0 | 15.0 | 0.00 | 0.00 | 0.00 | 48 | 1012.1 |
| 20260830193005 | 93 | 200 | 7.0 | 12.0 | 0.00 | 0.00 | 0.00 | 49 | 1012.2 |
| 20260830192502 | 93 | 164 | 4.0 | 18.0 | 0.00 | 0.00 | 0.00 | 49 | 1012.3 |
| 20260830192002 | 93 | 169 | 8.0 | 15.0 | 0.00 | 0.00 | 0.00 | 49 | 1012.4 |
| 20260830191601 | 93 | 175 | 10.0 | 18.0 | 0.00 | 0.00 | 0.00 | 50 | 1012.5 |
| 20260830191059 | 92 | 119 | 7.0 | 18.0 | 0.00 | 0.00 | 0.00 | 50 | 1012.5 |
| 20260830190558 | 92 | 188 | 6.0 | 16.0 | 0.00 | 0.00 | 0.00 | 50 | 1012.5 |
| 20260830190104 | 93 | 154 | 9.0 | 16.0 | 0.00 | 0.00 | 0.00 | 50 | 1012.6 |
| 20260830185554 | 93 | 186 | 7.0 | 14.0 | 0.00 | 0.00 | 0.00 | 49 | 1012.6 |
| 20260830185055 | 92 | 209 | 7.0 | 14.0 | 0.00 | 0.00 | 0.00 | 50 | 1012.7 |
| 20260830184559 | 92 | 121 | 2.0 | 13.0 | 0.00 | 0.00 | 0.00 | 49 | 1012.7 |
| 20260830184052 | 92 | 105 | 4.0 | 14.0 | 0.00 | 0.00 | 0.00 | 51 | 1012.9 |
| 20260830183550 | 92 | 157 | 9.0 | 14.0 | 0.00 | 0.00 | 0.00 | 50 | 1013.0 |
| 20260830183049 | 92 | 200 | 7.0 | 14.0 | 0.00 | 0.00 | 0.00 | 48 | 1013.2 |
| 20260830182548 | 92 | 163 | 7.0 | 14.0 | 0.00 | 0.00 | 0.00 | 49 | 1013.2 |
| 20260830182048 | 91 | 165 | 7.0 | 16.0 | 0.00 | 0.00 | 0.00 | 50 | 1013.2 |
| 20260830181546 | 90 | 143 | 10.0 | 16.0 | 0.00 | 0.00 | 0.00 | 50 | 1013.3 |
| 20260830181045 | 91 | 136 | 7.0 | 16.0 | 0.00 | 0.00 | 0.00 | 54 | 1013.5 |
| 20260830180545 | 90 | 178 | 4.0 | 17.0 | 0.00 | 0.00 | 0.00 | 54 | 1013.4 |
| 20260830180044 | 90 | 150 | 10.0 | 17.0 | 0.00 | 0.00 | 0.00 | 54 | 1013.6 |
| 20260830175544 | 90 | 161 | 8.0 | 14.0 | 0.00 | 0.00 | 0.00 | 55 | 1013.6 |
| 20260830175044 | 91 | 148 | 8.0 | 15.0 | 0.00 | 0.00 | 0.00 | 54 | 1013.7 |
| 20260830174544 | 90 | 164 | 6.0 | 15.0 | 0.00 | 0.00 | 0.00 | 55 | 1013.8 |
| 20260830174043 | 90 | 138 | 7.0 | 14.0 | 0.00 | 0.00 | 0.00 | 54 | 1013.8 |
| 20260830173545 | 90 | 178 | 7.0 | 14.0 | 0.00 | 0.00 | 0.00 | 55 | 1013.8 |
| 20260830173045 | 90 | 84 | 4.0 | 15.0 | 0.00 | 0.00 | 0.00 | 56 | 1013.9 |
| 20260830172539 | 89 | 196 | 8.0 | 14.0 | 0.00 | 0.00 | 0.00 | 56 | 1014.0 |
| 20260830172038 | 89 | 173 | 6.0 | 14.0 | 0.00 | 0.00 | 0.00 | 59 | 1014.0 |
| 20260830171543 | 88 | 172 | 7.0 | 13.0 | 0.00 | 0.00 | 0.00 | 60 | 1014.1 |
| 20260830171037 | 88 | 140 | 8.0 | 12.0 | 0.00 | 0.00 | 0.00 | 61 | 1014.1 |
| 20260830170538 | 88 | 144 | 7.0 | 12.0 | 0.00 | 0.00 | 0.00 | 61 | 1014.2 |
| 20260830170042 | 87 | 169 | 4.0 | 11.0 | 0.00 | 0.00 | 0.00 | 61 | 1014.3 |
| 20260830165533 | 87 | 178 | 5.0 | 12.0 | 0.00 | 0.00 | 0.00 | 62 | 1014.3 |
| 20260830165031 | 87 | 165 | 8.0 | 12.0 | 0.00 | 0.00 | 0.00 | 62 | 1014.2 |
| 20260830164531 | 87 | 191 | 5.0 | 12.0 | 0.00 | 0.00 | 0.00 | 63 | 1014.3 |
| 20260830164030 | 86 | 194 | 7.0 | 14.0 | 0.00 | 0.00 | 0.00 | 64 | 1014.4 |
| 20260830163529 | 86 | 168 | 6.0 | 12.0 | 0.00 | 0.00 | 0.00 | 66 | 1014.4 |
| 20260830163032 | 86 | 131 | 6.0 | 10.0 | 0.00 | 0.00 | 0.00 | 67 | 1014.4 |
| 20260830162528 | 86 | 194 | 6.0 | 10.0 | 0.00 | 0.00 | 0.00 | 68 | 1014.5 |
| 20260830162026 | 85 | 148 | 5.0 | 10.0 | 0.00 | 0.00 | 0.00 | 69 | 1014.5 |
| 20260830161524 | 85 | 171 | 3.0 | 10.0 | 0.00 | 0.00 | 0.00 | 70 | 1014.5 |
| 20260830161023 | 84 | 180 | 5.0 | 10.0 | 0.00 | 0.00 | 0.00 | 71 | 1014.5 |
| 20260830160524 | 84 | 190 | 5.0 | 10.0 | 0.00 | 0.00 | 0.00 | 73 | 1014.5 |
| 20260830160026 | 84 | 207 | 5.0 | 10.0 | 0.00 | 0.00 | 0.00 | 73 | 1014.5 |
| 20260830155520 | 83 | 173 | 6.0 | 13.0 | 0.00 | 0.00 | 0.00 | 73 | 1014.4 |
| 20260830155021 | 83 | 169 | 7.0 | 13.0 | 0.00 | 0.00 | 0.00 | 74 | 1014.4 |
| 20260830154518 | 82 | 186 | 5.0 | 11.0 | 0.00 | 0.00 | 0.00 | 75 | 1014.3 |
| 20260830154016 | 82 | 152 | 5.0 | 9.0 | 0.00 | 0.00 | 0.00 | 77 | 1014.2 |
| 20260830153516 | 81 | 196 | 4.0 | 8.0 | 0.00 | 0.00 | 0.00 | 77 | 1014.2 |
| 20260830153014 | 81 | 158 | 5.0 | 10.0 | 0.00 | 0.00 | 0.00 | 77 | 1014.3 |
| 20260830152513 | 81 | 153 | 3.0 | 10.0 | 0.00 | 0.00 | 0.00 | 79 | 1014.2 |
| 20260830152015 | 81 | 207 | 6.0 | 9.0 | 0.00 | 0.00 | 0.00 | 78 | 1014.1 |
| 20260830151511 | 80 | 144 | 5.0 | 10.0 | 0.00 | 0.00 | 0.00 | 80 | 1014.1 |
| 20260830151012 | 80 | 161 | 6.0 | 9.0 | 0.00 | 0.00 | 0.00 | 82 | 1014.2 |
| 20260830150513 | 79 | 176 | 6.0 | 9.0 | 0.00 | 0.00 | 0.00 | 82 | 1014.1 |
| 20260830150012 | 79 | 180 | 4.0 | 9.0 | 0.00 | 0.00 | 0.00 | 81 | 1014.1 |